Location: Belmont
(13.0833°N, 59.6000°W)
Time: 18:43:50
(UTC+00:00)

Ariane H10+ - Pass Details

Date: 17 September 2019
Orbit: 256 x 24923 km, 6.2° (Epoch: 20 October)

Event Time Altitude Azimuth Distance (km) Brightness Sun altitude
Rises 22:49:27 0° 252° (WSW) 2,298 6.3 -13.3°
Reaches altitude 10° 22:50:46 10° 242° (WSW) 1,739 5.3 -13.6°
Maximum altitude 22:54:07 43° 168° (SSE) 1,313 3.5 -14.4°
Enters shadow 23:01:36 19° 107° (ESE) 4,299 5.7 -16.2°
